CW4352 Weather Reports


Display with metric or nautical units.
time (UTC)temp
F
wind
direction
speed
MPH
gust
MPH
rain 1hr
in
rain 24hr
in
rain mn
in
humidity
%
barometer
mb
20260505094705 56 16 1.0 3.0 0.00 0.96 0.96 97 1007.9
20260505094204 56 17 1.0 3.0 0.01 0.96 0.96 97 1007.7
20260505093705 56 21 1.0 3.0 0.01 0.96 0.96 97 1007.7
20260505093205 56 27 1.0 3.0 0.02 0.96 0.96 97 1007.7
20260505091205 55 30 0.0 2.0 0.09 0.96 0.96 97 1007.7
20260505084705 54 30 0.0 0.0 0.27 0.96 0.96 96 1007.4
20260505083704 54 30 0.0 2.0 0.37 0.95 0.95 96 1007.4
20260505083204 54 30 0.0 2.0 0.40 0.94 0.94 96 1007.4
20260505081705 54 30 0.0 1.0 0.47 0.90 0.90 96 1007.9
20260505081205 54 30 0.0 1.0 0.46 0.87 0.87 96 1007.9
20260505080705 54 30 1.0 3.0 0.45 0.84 0.84 96 1007.9
20260505080204 53 30 0.0 2.0 0.44 0.80 0.80 96 1007.9
20260505074704 53 30 0.0 0.0 0.40 0.69 0.69 96 1007.7
20260505074205 53 30 0.0 0.0 0.39 0.65 0.65 96 1007.7
20260505071205 54 30 0.0 0.0 0.23 0.41 0.41 95 1007.7
20260505070705 54 30 0.0 1.0 0.22 0.39 0.39 95 1007.5
20260505070205 54 30 0.0 3.0 0.23 0.36 0.36 95 1007.9
20260505063705 54 30 0.0 1.0 0.22 0.25 0.25 93 1007.9
20260505063205 54 30 0.0 3.0 0.20 0.23 0.23 93 1007.9
20260505060705 54 30 0.0 2.0 0.14 0.17 0.17 92 1007.9
20260505060204 55 30 0.0 1.0 0.10 0.13 0.13 91 1007.9
20260505054705 55 30 0.0 0.0 0.02 0.05 0.05 91 1007.9
20260505054204 55 30 0.0 1.0 0.00 0.03 0.03 91 1007.9
20260505053705 55 30 0.0 0.0 0.00 0.03 0.03 91 1007.7
20260505051205 54 30 0.0 2.0 0.00 0.03 0.03 90 1007.7
20260505050704 54 30 0.0 1.0 0.01 0.03 0.03 90 1007.7
20260505040204 55 30 0.0 0.0 0.02 0.02 0.02 85 1008.0
20260505033205 57 30 0.0 0.0 0.01 0.01 0.01 76 1008.0
20260505030704 59 30 0.0 2.0 0.00 0.00 0.00 69 1008.0
20260505024205 59 30 0.0 1.0 0.00 0.00 0.00 61 1008.4
20260505021205 59 30 0.0 1.0 0.00 0.00 0.00 54 1008.4
20260505014705 60 30 0.0 0.0 0.00 0.00 0.00 50 1008.5
20260505011205 60 30 0.0 0.0 0.00 0.00 0.00 53 1009.3
20260505010704 60 30 0.0 0.0 0.00 0.00 0.00 50 1009.3
20260505004705 60 30 0.0 1.0 0.00 0.00 0.00 51 1009.3
20260505004204 60 30 0.0 0.0 0.00 0.00 0.00 51 1009.3
20260504234705 62 30 0.0 0.0 0.00 0.00 0.00 51 1010.0
20260504233704 62 30 0.0 0.0 0.00 0.00 0.00 48 1010.0
20260504233204 62 30 0.0 0.0 0.00 0.00 0.00 48 1010.0
20260504231204 63 30 0.0 2.0 0.00 0.00 0.00 45 1009.9
20260504230208 63 30 0.0 1.0 0.00 0.00 0.00 46 1009.9
20260504223703 62 30 0.0 2.0 0.00 0.00 0.00 45 1010.5
20260504220705 62 30 0.0 2.0 0.00 0.00 0.00 46 1010.4
20260504220203 62 30 1.0 5.0 0.00 0.00 0.00 46 1010.4
20260504213204 61 30 0.0 3.0 0.00 0.00 0.00 46 1010.6
20260504211703 61 30 0.0 2.0 0.00 0.00 0.00 46 1010.6
20260504210204 61 30 0.0 3.0 0.00 0.00 0.00 46 1010.6
20260504204704 61 30 1.0 5.0 0.00 0.00 0.00 46 1010.6
20260504204203 61 30 0.0 3.0 0.00 0.00 0.00 47 1010.6
20260504200203 62 30 1.0 3.0 0.00 0.00 0.00 44 1010.5
20260504194203 63 30 2.0 3.0 0.00 0.00 0.00 47 1009.5
20260504193204 63 30 2.0 5.0 0.00 0.00 0.00 49 1009.5
20260504191703 63 30 0.0 2.0 0.00 0.00 0.00 52 1009.5
20260504190704 63 30 2.0 3.0 0.00 0.00 0.00 52 1009.5
20260504190204 64 30 1.0 3.0 0.00 0.00 0.00 51 1009.5
20260504184204 66 30 1.0 5.0 0.00 0.00 0.00 43 1009.5
20260504181703 70 30 0.0 0.0 0.00 0.00 0.00 40 1009.3
20260504180204 71 30 0.0 2.0 0.00 0.00 0.00 39 1009.3
20260504173706 72 30 0.0 1.0 0.00 0.00 0.00 37 1009.4
20260504173205 72 30 1.0 6.0 0.00 0.00 0.00 38 1009.4
20260504171205 72 30 1.0 3.0 0.00 0.00 0.00 42 1009.5
20260504150705 75 39 0.0 2.0 0.00 0.00 0.00 33 1010.1
20260504141205 75 40 2.0 5.0 0.00 0.00 0.00 33 1010.5
20260504140706 75 40 0.0 3.0 0.00 0.00 0.00 33 1010.6
20260504140205 75 42 1.0 3.0 0.00 0.00 0.00 36 1010.6
20260504130705 75 43 2.0 3.0 0.00 0.00 0.00 34 1011.1
20260504120205 73 24 1.0 3.0 0.00 0.00 0.00 31 1011.6